Location: McCall
(45.0000°N, 116.0000°W)
Time: 05:18:54
(UTC-07:00)

Amateur Radio Satellites - All Passes

Search period start: 29 January 2015 04:48
Search period end: 30 January 2015 04:48
Location: McCall, 45.0000°N, 116.0000°W

Satellite Date Start Highest point End Downlink Frequencies (MHz)
Time Altitude Azimuth
DANDE 29 Jan 04:53:51 05:02:04 72° 96° (E) 05:10:42 436.750
BEESAT 3 29 Jan 04:54:17 04:57:05 17° 324° (NW) 04:59:49 437.485
GONETS M04 29 Jan 04:57:07 05:01:21 13° 310° (NW) 05:05:03
ISS 29 Jan 04:57:26 05:00:40 49° 216° (SW) 05:03:52 145.825
YUBILEINY 29 Jan 05:03:55 05:07:46 14° 50° (NE) 05:12:09 435.215
Gurwin Techsat 1B 29 Jan 05:11:39 05:14:59 17° 301° (WNW) 05:18:08 435.225
JAS-2 29 Jan 05:17:55 05:23:26 54° 100° (E) 05:29:36 435.910
CUSAT 1 29 Jan 05:24:08 05:32:26 71° 284° (WNW) 05:40:46 437.405
MOZHAYETS 4 29 Jan 05:29:13 05:33:24 33° 264° (W) 05:37:33
HORYU 2 29 Jan 05:31:12 05:34:33 21° 296° (WNW) 05:37:47 437.375
CUBESAT XI-V 29 Jan 05:44:07 05:48:07 31° 68° (ENE) 05:52:12 437.345
STRAND 1 29 Jan 05:46:44 05:50:59 28° 65° (ENE) 05:55:22 437.568
PRISM 29 Jan 05:50:49 05:54:47 50° 72° (ENE) 05:58:48 437.425
AO-7 29 Jan 06:11:52 06:19:55 53° 297° (WNW) 06:27:50 29.400- 29.500
AIST 2 29 Jan 06:15:07 06:16:28 11° 332° (NNW) 06:17:43 435.215
Cubesat XI-IV 29 Jan 06:16:35 06:21:01 26° 93° (E) 06:25:33 437.490
PCSat 29 Jan 06:32:25 06:37:15 31° 315° (NW) 06:42:03 145.827
CUTE-I 29 Jan 06:36:16 06:41:16 38° 97° (E) 06:46:17 437.470
RS-15 29 Jan 06:36:40 06:47:35 76° 309° (NW) 06:58:42 29.354- 29.394
DANDE 29 Jan 06:38:52 06:46:19 32° 297° (WNW) 06:53:43 436.750
YUBILEINY 29 Jan 06:58:20 07:07:01 61° 76° (ENE) 07:15:43 435.215
JAS-2 29 Jan 07:03:49 07:08:22 25° 295° (WNW) 07:13:09 435.910
CUSAT 1 29 Jan 07:11:18 07:17:04 19° 305° (NW) 07:22:23 437.405
CUBESAT XI-V 29 Jan 07:21:30 07:25:34 30° 266° (W) 07:29:37 437.345
STRAND 1 29 Jan 07:25:16 07:30:04 40° 262° (W) 07:34:53 437.568
PRISM 29 Jan 07:28:10 07:30:40 15° 270° (W) 07:33:01 437.425
Cubesat XI-IV 29 Jan 07:56:14 08:01:21 45° 291° (WNW) 08:06:27 437.490
AO-7 29 Jan 08:06:47 08:10:58 15° 319° (NW) 08:14:48 29.400- 29.500
HO-68 29 Jan 08:13:32 08:17:47 17° 86° (E) 08:22:23 435.675
CUTE-I 29 Jan 08:16:32 08:21:17 32° 294° (WNW) 08:25:57 437.470
GOMX 1 29 Jan 08:38:44 08:42:43 21° 88° (E) 08:46:43 467.674
CANX-2 29 Jan 08:42:12 08:45:10 19° 91° (E) 08:48:15 2200.000
BRITE-PL 29 Jan 08:42:34 08:47:37 32° 93° (E) 08:52:33 437.365/2234.400
DOVE 4 29 Jan 08:51:16 08:54:52 19° 88° (E) 08:58:31 437.250
RS-15 29 Jan 08:52:32 09:02:08 33° 339° (NNW) 09:11:52 29.354- 29.394
AAUSAT CUBESAT 2 29 Jan 08:54:50 08:57:05 14° 89° (E) 08:59:29 437.432
YUBILEINY 29 Jan 08:55:53 09:03:25 32° 276° (W) 09:10:46 435.215
UNISAT 6 29 Jan 09:04:51 09:07:15 14° 61° (ENE) 09:09:49 437.425
CUTE 1.7 + AOD 2 29 Jan 09:05:49 09:09:33 30° 95° (E) 09:13:19 437.475
VERMONT LUNAR 29 Jan 09:08:35 09:10:50 16° 156° (SSE) 09:13:08 437.305
Oscar 11 29 Jan 09:09:45 09:10:19 10° 86° (E) 09:11:09 145.826/435.025
POPSAT HIP 1 29 Jan 09:22:19 09:23:33 11° 60° (ENE) 09:24:59 437.405
DUCHIFAT 1 29 Jan 09:24:44 09:26:11 12° 60° (ENE) 09:27:50 145.980
SEEDS 29 Jan 09:36:12 09:40:20 55° 100° (E) 09:44:27 437.485
ANTELSAT 29 Jan 09:38:58 09:42:58 29° 67° (ENE) 09:47:02 437.575/2403.000
BEESAT 2 29 Jan 09:41:25 09:43:05 12° 30° (NNE) 09:44:51 435.950
UKube-1 29 Jan 09:43:46 09:45:58 14° 89° (E) 09:48:21 .
TIGRISAT 29 Jan 09:46:30 09:50:40 33° 69° (ENE) 09:54:53 435.000
CUBEBUG 2 29 Jan 09:50:16 09:53:47 22° 91° (E) 09:57:18 437.445
BEESAT 3 29 Jan 09:54:57 09:57:29 16° 35° (NE) 10:00:06 437.485
NANOSAT C BR1 29 Jan 09:57:05 10:00:30 24° 67° (ENE) 10:04:02 145.865
ZACube-1 29 Jan 09:58:01 10:01:01 18° 90° (E) 10:04:05 437.345
HO-68 29 Jan 09:59:25 10:06:38 88° 106° (ESE) 10:13:49 435.675
COMPASS 1 29 Jan 10:02:42 10:06:54 89° 250° (WSW) 10:11:03 437.405
HUMSAT D 29 Jan 10:02:49 10:03:11 10° 85° (E) 10:03:50 437.325/437.525
DX 1 29 Jan 10:03:37 10:07:08 23° 93° (E) 10:10:43 434.975-435.025
PHONESAT 2.4 29 Jan 10:06:58 10:09:49 22° 160° (SSE) 10:12:42 2401.200-2431.200
FUNcube-1 29 Jan 10:09:35 10:13:06 23° 92° (E) 10:16:38 145.935
QB50P2 29 Jan 10:10:56 10:14:47 34° 69° (ENE) 10:18:43 145.880/145.840
CINEMA 3 29 Jan 10:14:28 10:19:21 65° 101° (E) 10:24:00 145.822/145.860
GOMX 1 29 Jan 10:15:54 10:21:17 57° 288° (WNW) 10:26:24 467.674
CANX-2 29 Jan 10:17:21 10:21:22 41° 289° (WNW) 10:25:19 2200.000
QB50P1 29 Jan 10:20:03 10:24:04 41° 71° (ENE) 10:28:09 145.935-145.965
BRITE-PL 29 Jan 10:20:52 10:26:12 41° 292° (WNW) 10:31:18 437.365/2234.400
DELFI C3 29 Jan 10:23:55 10:27:54 53° 100° (E) 10:31:51 145.870
DOVE 4 29 Jan 10:27:57 10:33:08 58° 288° (WNW) 10:38:02 437.250
AISAT 29 Jan 10:28:46 10:31:46 18° 90° (E) 10:34:53 437.250
AAUSAT CUBESAT 2 29 Jan 10:29:05 10:33:09 52° 287° (WNW) 10:37:10 437.432
UWE-3 29 Jan 10:29:39 10:34:01 45° 98° (E) 10:38:15 435.000/436.395/437.385
BUGSAT 1 29 Jan 10:31:36 10:35:28 41° 71° (ENE) 10:39:25 437.445
POLYITAN 1 29 Jan 10:34:38 10:38:52 60° 73° (ENE) 10:43:09 437.675
UNISAT 6 29 Jan 10:38:47 10:43:30 78° 256° (WSW) 10:48:15 437.425
CUTE 1.7 + AOD 2 29 Jan 10:41:52 10:45:26 26° 292° (WNW) 10:48:55 437.475
Oscar 11 29 Jan 10:42:50 10:47:11 79° 283° (WNW) 10:51:28 145.826/435.025
VERMONT LUNAR 29 Jan 10:45:12 10:48:25 35° 172° (S) 10:51:41 437.305
AIST 1 29 Jan 10:54:28 10:56:48 15° 86° (E) 10:59:20
POPSAT HIP 1 29 Jan 10:54:34 10:58:52 86° 256° (WSW) 11:03:13 437.405
VELOX 1 29 Jan 10:56:16 11:00:18 32° 96° (E) 11:04:21 145.980
DUCHIFAT 1 29 Jan 10:57:12 11:01:28 81° 256° (WSW) 11:05:48 145.980
CUBEBUG 1 29 Jan 11:05:08 11:08:02 17° 90° (E) 11:11:05 437.445
GONETS M04 29 Jan 11:05:41 11:11:03 18° 55° (NE) 11:16:48
RS-15 29 Jan 11:09:35 11:18:49 29° 13° (NNE) 11:28:27 29.354- 29.394
50 SAT 29 Jan 11:10:58 11:14:51 42° 98° (E) 11:18:41 437.505
SEEDS 29 Jan 11:13:14 11:15:48 15° 296° (WNW) 11:18:13 437.485
AIST 2 29 Jan 11:14:29 11:18:14 28° 43° (NE) 11:21:58 435.215
ANTELSAT 29 Jan 11:15:22 11:19:42 34° 264° (W) 11:23:59 437.575/2403.000
SO-50 29 Jan 11:15:24 11:19:58 78° 124° (SE) 11:24:44 436.795
BEESAT 2 29 Jan 11:18:04 11:22:14 59° 52° (NE) 11:26:19 435.950
UKube-1 29 Jan 11:18:17 11:22:36 61° 287° (WNW) 11:26:54 .
TIGRISAT 29 Jan 11:23:16 11:27:26 30° 265° (W) 11:31:32 435.000
CUBEBUG 2 29 Jan 11:26:23 11:30:44 41° 290° (WNW) 11:34:53 437.445
BEESAT 3 29 Jan 11:32:04 11:36:16 90° 259° (WSW) 11:40:23 437.485
NANOSAT C BR1 29 Jan 11:32:21 11:36:16 34° 264° (W) 11:40:11 145.865
ZACube-1 29 Jan 11:33:25 11:37:44 47° 288° (WNW) 11:41:53 437.345
HUMSAT D 29 Jan 11:35:24 11:39:40 77° 285° (WNW) 11:43:50 437.325/437.525
DX 1 29 Jan 11:39:27 11:43:31 36° 291° (WNW) 11:47:32 434.975-435.025
PHONESAT 2.4 29 Jan 11:44:32 11:47:57 40° 176° (S) 11:51:23 2401.200-2431.200
FUNcube-1 29 Jan 11:45:31 11:49:37 36° 291° (WNW) 11:53:34 145.935
QB50P2 29 Jan 11:47:16 11:50:48 24° 267° (W) 11:54:18 145.880/145.840
HO-68 29 Jan 11:48:22 11:53:35 22° 306° (NW) 11:58:34 435.675
PCSat 29 Jan 11:51:59 11:54:57 15° 31° (NNE) 11:58:03 145.827
CINEMA 3 29 Jan 11:52:51 11:56:03 17° 298° (WNW) 11:59:01 145.822/145.860
QB50P1 29 Jan 11:57:00 12:00:11 20° 269° (W) 12:03:18 145.935-145.965
DELFI C3 29 Jan 12:00:23 12:02:46 15° 296° (WNW) 12:05:02 145.870
Oscar 19 29 Jan 12:01:13 12:04:44 19° 61° (ENE) 12:08:23 437.125/150
AISAT 29 Jan 12:04:21 12:08:45 51° 288° (WNW) 12:13:06 437.250
UWE-3 29 Jan 12:06:54 12:10:17 20° 296° (WNW) 12:13:28 435.000/436.395/437.385
ESTCUBE 1 29 Jan 12:07:24 12:11:58 80° 101° (ESE) 12:16:30 437.505/2401.250
BUGSAT 1 29 Jan 12:08:17 12:11:13 18° 269° (W) 12:14:05 437.445
POLYITAN 1 29 Jan 12:12:56 12:15:17 14° 272° (W) 12:17:28 437.675
ITAMSAT 1 29 Jan 12:20:25 12:21:29 11° 55° (NE) 12:22:48 435.822/435.867
VERMONT LUNAR 29 Jan 12:22:58 12:26:12 35° 189° (S) 12:29:27 437.305
SPROUT 29 Jan 12:25:23 12:29:13 30° 95° (E) 12:33:04 437.525
AIST 1 29 Jan 12:29:58 12:34:06 49° 283° (WNW) 12:38:16
VELOX 1 29 Jan 12:32:58 12:36:50 28° 293° (WNW) 12:40:37 145.980
CUBEBUG 1 29 Jan 12:40:26 12:44:46 50° 288° (WNW) 12:49:04 437.445
50 SAT 29 Jan 12:46:51 12:49:42 18° 295° (WNW) 12:52:26 437.505
AIST 2 29 Jan 12:52:57 12:56:58 38° 242° (WSW) 13:00:52 435.215
BEESAT 2 29 Jan 12:57:27 13:00:02 16° 248° (WSW) 13:02:27 435.950
SO-50 29 Jan 12:57:35 13:01:08 20° 325° (NW) 13:04:41 436.795
GONETS M04 29 Jan 13:01:00 13:09:44 77° 80° (E) 13:18:27
TISAT 1 29 Jan 13:01:40 13:05:59 71° 102° (ESE) 13:10:15 437.305
Gurwin Techsat 1B 29 Jan 13:15:08 13:19:07 23° 63° (ENE) 13:23:14 435.225
PHONESAT 2.4 29 Jan 13:22:53 13:26:10 32° 193° (SSW) 13:29:27 2401.200-2431.200
RS-15 29 Jan 13:23:13 13:34:16 58° 43° (NE) 13:45:51 29.354- 29.394
SWISSCUBE 29 Jan 13:31:31 13:35:27 25° 93° (E) 13:39:27 437.505
AO-7 29 Jan 13:32:02 13:36:46 17° 45° (NE) 13:41:52 29.400- 29.500
PCSat 29 Jan 13:34:12 13:39:35 60° 54° (NE) 13:44:58 145.827
Oscar 19 29 Jan 13:38:28 13:43:38 66° 258° (WSW) 13:48:50 437.125/150
ESTCUBE 1 29 Jan 13:46:10 13:48:18 13° 300° (WNW) 13:50:15 437.505/2401.250
BEESAT 29 Jan 13:47:03 13:51:21 33° 96° (E) 13:55:41 436.000
ITUPSAT 1 29 Jan 13:51:01 13:55:24 35° 97° (E) 13:59:49 437.325
ITAMSAT 1 29 Jan 13:55:00 14:00:08 68° 72° (ENE) 14:05:19 435.822/435.867
DANDE 29 Jan 13:56:33 13:59:05 12° 47° (NE) 14:01:44 436.750
VERMONT LUNAR 29 Jan 14:01:29 14:03:49 16° 204° (SSW) 14:06:05 437.305
SPROUT 29 Jan 14:01:32 14:05:17 28° 292° (WNW) 14:08:58 437.525
KKS-1 29 Jan 14:07:12 14:07:35 10° 86° (E) 14:08:16 437.445
CUSAT 1 29 Jan 14:23:23 14:27:55 20° 56° (NE) 14:31:51 437.405
TISAT 1 29 Jan 14:39:09 14:41:19 13° 298° (WNW) 14:43:18 437.305
Gurwin Techsat 1B 29 Jan 14:53:33 14:58:45 56° 260° (W) 15:04:00 435.225
HORYU 2 29 Jan 14:54:03 14:58:25 53° 72° (ENE) 15:02:50 437.375
GONETS M04 29 Jan 14:59:07 15:05:46 24° 279° (W) 15:12:04
PHONESAT 2.4 29 Jan 15:02:25 15:04:09 13° 208° (SSW) 15:05:48 2401.200-2431.200
SWISSCUBE 29 Jan 15:09:01 15:13:28 39° 291° (WNW) 15:17:53 437.505
PCSat 29 Jan 15:18:28 15:22:38 22° 252° (WSW) 15:26:39 145.827
AO-7 29 Jan 15:19:56 15:28:07 63° 66° (ENE) 15:36:22 29.400- 29.500
BEESAT 29 Jan 15:24:59 15:29:10 30° 293° (WNW) 15:33:18 436.000
ITUPSAT 1 29 Jan 15:29:06 15:33:14 29° 294° (WNW) 15:37:17 437.325
STARS 29 Jan 15:33:29 15:37:53 54° 100° (E) 15:42:14 437.465
JAS-2 29 Jan 15:33:56 15:38:17 26° 65° (ENE) 15:42:35 435.910
RS-15 29 Jan 15:35:55 15:46:43 51° 247° (WSW) 15:57:51 29.354- 29.394
ITAMSAT 1 29 Jan 15:36:53 15:40:13 16° 271° (W) 15:43:21 435.822/435.867
DANDE 29 Jan 15:37:46 15:44:42 63° 74° (ENE) 15:49:51 436.750
KKS-1 29 Jan 15:40:28 15:44:59 85° 285° (WNW) 15:49:28 437.445
M-CUBED/EXP-1 PRIME 29 Jan 15:57:34 16:00:32 29° 103° (ESE) 16:03:34 437.505
CUSAT 1 29 Jan 16:05:36 16:12:01 67° 265° (W) 16:16:43 437.405
CUTE-I 29 Jan 16:24:08 16:26:06 12° 56° (NE) 16:28:20 437.470
AUBIESAT-1 29 Jan 16:30:15 16:33:34 72° 107° (ESE) 16:36:59 437.475
HORYU 2 29 Jan 16:32:29 16:35:29 17° 270° (W) 16:38:19 437.375
O/OREOS (USA 219) 29 Jan 16:35:16 16:39:34 48° 109° (ESE) 16:43:57 437.305
STARS 29 Jan 17:10:59 17:13:59 18° 297° (WNW) 17:16:52 437.465
AO-7 29 Jan 17:14:05 17:21:29 32° 266° (W) 17:28:43 29.400- 29.500
JAS-2 29 Jan 17:18:08 17:23:19 42° 262° (W) 17:28:15 435.910
KKS-1 29 Jan 17:19:42 17:20:59 11° 301° (WNW) 17:22:02 437.445
MOZHAYETS 4 29 Jan 17:21:56 17:26:23 49° 99° (E) 17:30:49
DANDE 29 Jan 17:22:29 17:27:14 20° 280° (W) 17:31:00 436.750
M-CUBED/EXP-1 PRIME 29 Jan 17:33:07 17:35:25 17° 299° (WNW) 17:37:41 437.505
Cubesat XI-IV 29 Jan 17:40:24 17:45:32 52° 70° (ENE) 17:50:45 437.490
CUTE-I 29 Jan 18:00:06 18:05:23 75° 74° (ENE) 18:10:45 437.470
SO-50 29 Jan 18:05:06 18:09:00 23° 37° (NE) 18:12:59 436.795
YUBILEINY 29 Jan 18:11:52 18:14:38 12° 73° (ENE) 18:18:05 435.215
O/OREOS (USA 219) 29 Jan 18:15:47 18:19:18 21° 308° (NW) 18:22:45 437.305
HO-68 29 Jan 18:45:21 18:49:50 19° 52° (NE) 18:54:36 435.675
MOZHAYETS 4 29 Jan 19:00:00 19:03:19 20° 296° (WNW) 19:06:31
PRISM 29 Jan 19:06:58 19:11:06 64° 102° (ESE) 19:15:15 437.425
CUBESAT XI-V 29 Jan 19:15:31 19:20:09 58° 100° (E) 19:24:48 437.345
Cubesat XI-IV 29 Jan 19:21:49 19:26:00 23° 269° (W) 19:30:06 437.490
STRAND 1 29 Jan 19:33:21 19:38:27 58° 101° (E) 19:43:32 437.568
CANX-2 29 Jan 19:37:34 19:40:33 19° 65° (ENE) 19:43:40 2200.000
CUTE-I 29 Jan 19:42:58 19:46:10 15° 273° (W) 19:49:08 437.470
CINEMA 3 29 Jan 19:44:39 19:46:02 11° 58° (ENE) 19:47:41 145.822/145.860
SO-50 29 Jan 19:45:09 19:50:04 70° 237° (WSW) 19:54:58 436.795
GOMX 1 29 Jan 19:48:22 19:52:39 27° 65° (ENE) 19:57:12 467.674
AAUSAT CUBESAT 2 29 Jan 19:48:33 19:50:46 15° 63° (ENE) 19:53:09 437.432
BRITE-PL 29 Jan 19:54:55 19:59:42 41° 69° (ENE) 20:04:52 437.365/2234.400
DOVE 4 29 Jan 19:58:25 20:02:30 25° 64° (ENE) 20:06:48 437.250
CUTE 1.7 + AOD 2 29 Jan 20:00:49 20:04:32 29° 69° (ENE) 20:08:17 437.475
YUBILEINY 29 Jan 20:01:22 20:09:53 65° 93° (E) 20:18:29 435.215
Oscar 11 29 Jan 20:06:24 20:08:01 12° 61° (ENE) 20:09:50 145.826/435.025
HO-68 29 Jan 20:29:29 20:36:37 81° 72° (ENE) 20:43:49 435.675
SEEDS 29 Jan 20:30:15 20:34:22 50° 73° (ENE) 20:38:31 437.485
UKube-1 29 Jan 20:40:53 20:43:36 17° 63° (ENE) 20:46:27 .
PRISM 29 Jan 20:44:01 20:46:12 14° 298° (WNW) 20:48:13 437.425
CUBEBUG 2 29 Jan 20:50:17 20:54:09 26° 66° (ENE) 20:58:09 437.445
CUBESAT XI-V 29 Jan 20:54:02 20:57:13 18° 297° (WNW) 21:00:17 437.345
COMPASS 1 29 Jan 20:55:53 21:00:07 80° 76° (ENE) 21:04:21 437.405
ZACube-1 29 Jan 20:55:59 20:59:21 21° 65° (ENE) 21:02:50 437.345
HUMSAT D 29 Jan 20:56:46 20:58:09 12° 61° (ENE) 20:59:45 437.325/437.525
DX 1 29 Jan 21:01:17 21:04:56 27° 67° (ENE) 21:08:39 434.975-435.025
FUNcube-1 29 Jan 21:07:18 21:11:03 26° 67° (ENE) 21:14:54 145.935
CANX-2 29 Jan 21:12:06 21:16:14 45° 262° (W) 21:20:23 2200.000
STRAND 1 29 Jan 21:13:27 21:17:17 21° 298° (WNW) 21:20:59 437.568
DELFI C3 29 Jan 21:14:02 21:17:55 43° 72° (ENE) 21:21:49 145.870
CINEMA 3 29 Jan 21:17:30 21:22:26 74° 75° (ENE) 21:27:31 145.822/145.860
AAUSAT CUBESAT 2 29 Jan 21:21:51 21:26:01 60° 259° (W) 21:30:12 437.432
GOMX 1 29 Jan 21:25:38 21:30:32 45° 263° (W) 21:35:42 467.674
UWE-3 29 Jan 21:28:21 21:32:52 49° 72° (ENE) 21:37:26 435.000/436.395/437.385
AISAT 29 Jan 21:28:56 21:32:15 21° 65° (ENE) 21:35:42 437.250
BRITE-PL 29 Jan 21:33:57 21:38:23 29° 269° (W) 21:43:02 437.365/2234.400
DOVE 4 29 Jan 21:35:04 21:39:58 48° 262° (W) 21:45:06 437.250
ESTCUBE 1 29 Jan 21:35:44 21:37:12 12° 60° (ENE) 21:38:53 437.505/2401.250
CUTE 1.7 + AOD 2 29 Jan 21:36:45 21:40:28 28° 266° (W) 21:44:08 437.475
Oscar 11 29 Jan 21:39:18 21:43:40 80° 257° (WSW) 21:48:02 145.826/435.025
ISS 29 Jan 21:39:37 21:41:49 17° 135° (SE) 21:44:06 145.825
VELOX 1 29 Jan 21:56:01 22:00:04 37° 69° (ENE) 22:04:12 145.980
YUBILEINY 29 Jan 21:59:53 22:07:27 31° 296° (WNW) 22:14:52 435.215
50 SAT 29 Jan 22:00:17 22:04:03 35° 70° (ENE) 22:07:52 437.505
CUBEBUG 1 29 Jan 22:03:40 22:06:43 19° 64° (ENE) 22:09:54 437.445
SEEDS 29 Jan 22:07:50 22:10:33 16° 270° (W) 22:13:07 437.485
UKube-1 29 Jan 22:15:09 22:19:24 55° 259° (W) 22:23:41 .
HO-68 29 Jan 22:20:02 22:25:15 20° 272° (W) 22:30:12 435.675
CUBEBUG 2 29 Jan 22:26:12 22:30:42 40° 264° (W) 22:35:12 437.445
HUMSAT D 29 Jan 22:29:00 22:33:22 85° 257° (WSW) 22:37:46 437.325/437.525
UNISAT 6 29 Jan 22:30:13 22:33:20 19° 90° (E) 22:36:32 437.425
ZACube-1 29 Jan 22:30:58 22:35:27 48° 262° (W) 22:39:56 437.345
AIST 1 29 Jan 22:34:58 22:39:10 46° 77° (ENE) 22:43:24
DX 1 29 Jan 22:37:12 22:41:07 31° 264° (W) 22:45:01 434.975-435.025
POPSAT HIP 1 29 Jan 22:39:43 22:41:55 14° 88° (E) 22:44:18 437.405
DUCHIFAT 1 29 Jan 22:41:53 22:44:12 15° 89° (E) 22:46:43 145.980
FUNcube-1 29 Jan 22:42:59 22:47:15 37° 264° (W) 22:51:33 145.935
DELFI C3 29 Jan 22:50:41 22:53:25 17° 269° (W) 22:56:03 145.870
CINEMA 3 29 Jan 22:57:27 23:00:18 15° 274° (W) 23:02:57 145.822/145.860
AISAT 29 Jan 23:04:24 23:08:39 43° 262° (W) 23:12:56 437.250
ANTELSAT 29 Jan 23:05:29 23:09:45 43° 98° (E) 23:13:55 437.575/2403.000
UWE-3 29 Jan 23:06:14 23:09:43 20° 270° (W) 23:13:06 435.000/436.395/437.385
ESTCUBE 1 29 Jan 23:08:59 23:13:29 88° 256° (WSW) 23:18:00 437.505/2401.250
TIGRISAT 29 Jan 23:12:47 23:17:10 50° 99° (E) 23:21:24 435.000
ISS 29 Jan 23:14:44 23:18:01 74° 331° (NNW) 23:21:20 145.825
NANOSAT C BR1 29 Jan 23:15:29 23:19:22 33° 96° (E) 23:23:16 145.865
SPROUT 29 Jan 23:21:40 23:25:25 30° 68° (ENE) 23:29:15 437.525
QB50P2 29 Jan 23:30:00 23:34:12 48° 99° (E) 23:38:21 145.880/145.840
VELOX 1 29 Jan 23:33:12 23:36:48 23° 267° (W) 23:40:21 145.980
50 SAT 29 Jan 23:36:04 23:39:19 21° 268° (W) 23:42:29 437.505
CUBEBUG 1 29 Jan 23:38:37 23:42:49 46° 261° (W) 23:47:03 437.445
QB50P1 29 Jan 23:39:02 23:43:19 59° 101° (E) 23:47:33 145.935-145.965
BUGSAT 1 29 Jan 23:47:13 23:51:28 56° 100° (E) 23:55:41 437.445
POLYITAN 1 29 Jan 23:54:16 23:58:38 87° 103° (ESE) 00:02:56 437.675
TISAT 1 29 Jan 23:55:53 00:00:06 68° 74° (ENE) 00:04:22 437.305
UNISAT 6 30 Jan 00:06:10 00:10:27 44° 289° (WNW) 00:14:36 437.425
GONETS M04 30 Jan 00:11:59 00:16:57 18° 77° (ENE) 00:22:24
AIST 1 30 Jan 00:13:40 00:16:31 17° 273° (W) 00:19:12
POPSAT HIP 1 30 Jan 00:14:01 00:18:17 59° 287° (WNW) 00:22:30 437.405
DUCHIFAT 1 30 Jan 00:16:16 00:20:30 56° 288° (WNW) 00:24:42 145.980
SWISSCUBE 30 Jan 00:40:04 00:44:24 36° 68° (ENE) 00:48:46 437.505
ANTELSAT 30 Jan 00:42:56 00:46:18 21° 296° (WNW) 00:49:31 437.575/2403.000
TIGRISAT 30 Jan 00:50:27 00:53:34 18° 297° (WNW) 00:56:31 435.000
NANOSAT C BR1 30 Jan 00:51:34 00:55:09 25° 293° (WNW) 00:58:38 145.865
ISS 30 Jan 00:52:02 00:54:54 27° 351° (N) 00:57:48 145.825
BEESAT 30 Jan 00:55:28 01:00:01 47° 70° (ENE) 01:04:36 436.000
SPROUT 30 Jan 00:57:49 01:01:32 27° 266° (W) 01:05:14 437.525
ITUPSAT 1 30 Jan 00:59:46 01:04:22 51° 71° (ENE) 01:09:00 437.325
O/OREOS (USA 219) 30 Jan 01:04:40 01:07:47 18° 49° (NE) 01:11:01 437.305
KKS-1 30 Jan 01:06:38 01:08:48 14° 61° (ENE) 01:11:11 437.445
QB50P2 30 Jan 01:06:47 01:09:49 18° 296° (WNW) 01:12:43 145.880/145.840
QB50P1 30 Jan 01:16:11 01:18:48 15° 297° (WNW) 01:21:16 145.935-145.965
BUGSAT 1 30 Jan 01:23:52 01:26:35 16° 297° (WNW) 01:29:09 437.445
BEESAT 3 30 Jan 01:31:42 01:32:08 10° 109° (ESE) 01:32:48 437.485
POLYITAN 1 30 Jan 01:32:37 01:33:58 11° 300° (WNW) 01:35:07 437.675
TISAT 1 30 Jan 01:34:45 01:36:30 12° 273° (W) 01:38:02 437.305
AUBIESAT-1 30 Jan 01:48:14 01:50:09 14° 60° (ENE) 01:52:08 437.475
Oscar 19 30 Jan 01:48:14 01:53:02 38° 97° (E) 01:57:48 437.125/150
GONETS M04 30 Jan 02:03:50 02:12:36 83° 97° (E) 02:21:22
ITAMSAT 1 30 Jan 02:06:40 02:10:29 21° 91° (E) 02:14:27 435.822/435.867
SWISSCUBE 30 Jan 02:18:19 02:22:22 27° 266° (W) 02:26:22 437.505
ISS 30 Jan 02:29:07 02:32:03 29° 12° (NNE) 02:35:01 145.825
STARS 30 Jan 02:32:19 02:36:42 62° 73° (ENE) 02:41:08 437.465
BEESAT 30 Jan 02:34:32 02:38:10 21° 269° (W) 02:41:40 436.000
ITUPSAT 1 30 Jan 02:39:09 02:42:37 19° 269° (W) 02:45:58 437.325
KKS-1 30 Jan 02:40:28 02:44:56 74° 257° (WSW) 02:49:28 437.445
O/OREOS (USA 219) 30 Jan 02:43:08 02:47:42 63° 249° (WSW) 02:52:14 437.305
M-CUBED/EXP-1 PRIME 30 Jan 02:48:20 02:52:18 69° 70° (ENE) 02:55:58 437.505
BEESAT 2 30 Jan 02:52:23 02:56:27 62° 122° (ESE) 03:00:36 435.950
AIST 2 30 Jan 02:53:05 02:56:41 28° 116° (ESE) 03:00:23 435.215
BEESAT 3 30 Jan 03:05:33 03:09:40 87° 305° (NW) 03:13:52 437.485
Gurwin Techsat 1B 30 Jan 03:07:38 03:12:49 51° 99° (E) 03:18:00 435.225
DANDE 30 Jan 03:09:16 03:14:08 18° 79° (E) 03:19:30 436.750
AUBIESAT-1 30 Jan 03:20:57 03:24:50 54° 254° (WSW) 03:28:26 437.475
AO-7 30 Jan 03:21:15 03:25:48 16° 85° (E) 03:30:50 29.400- 29.500
Oscar 19 30 Jan 03:27:50 03:32:18 30° 294° (WNW) 03:36:41 437.125/150
CUSAT 1 30 Jan 03:31:39 03:38:19 29° 86° (E) 03:45:13 437.405
ITAMSAT 1 30 Jan 03:45:17 03:50:23 55° 290° (WNW) 03:55:29 435.822/435.867
RS-15 30 Jan 03:52:51 04:00:30 24° 103° (ESE) 04:08:41 29.354- 29.394
GONETS M04 30 Jan 04:03:47 04:10:42 24° 300° (WNW) 04:17:18
ISS 30 Jan 04:05:32 04:08:52 86° 204° (SSW) 04:12:10 145.825
STARS 30 Jan 04:11:10 04:13:41 14° 271° (W) 04:16:01 437.465
PCSat 30 Jan 04:18:09 04:23:01 36° 112° (ESE) 04:27:58 145.827
HORYU 2 30 Jan 04:20:02 04:24:31 83° 103° (ESE) 04:28:57 437.375
JAS-2 30 Jan 04:23:52 04:28:00 21° 91° (E) 04:32:41 435.910
MOZHAYETS 4 30 Jan 04:25:44 04:30:13 58° 73° (ENE) 04:34:45
AIST 2 30 Jan 04:31:13 04:35:13 37° 314° (NW) 04:39:14 435.215
BEESAT 2 30 Jan 04:31:56 04:35:05 20° 322° (NW) 04:38:11 435.950
